Location: Dompnac
(44.5644°N, 4.1026°E)
Time: 02:32:46
(UTC+00:00)

Cosmos 2082 Rocket - Pass Details

Date: 20 June 2021
Orbit: 832 x 855 km, 71.0° (Epoch: 03 August)

Event Time Altitude Azimuth Distance (km) Brightness Sun altitude
Rises 03:03:01 0° 172° (S) 3,362 5.0 -8.4°
Reaches altitude 10° 03:05:44 10° 161° (SSE) 2,433 4.4 -8.0°
Maximum altitude 03:10:25 29° 103° (ESE) 1,500 3.9 -7.4°
Drops below altitude 10° 03:15:08 10° 46° (NE) 2,449 6.5 -6.8°
Sets 03:17:52 0° 35° (NE) 3,390 7.4 -6.5°
